• In Romania
  • List of Countries
  • For 7 days
  • Water Temperature
  • Satellite Maps
  • Weather Map
  • Weather Widgets
  • user-avatar
    Login

    Hourly Weather Escaldes-Engordany

    Today, 18 January, Thursday

    Time Temperature Precipitation Wind Pressure Humidity
    00:00 -4°C° 0 mm 2 mps 641 mmHg 70%
    01:00 -4°C° 0 mm 2 mps 641 mmHg 68%
    02:00 -1°C° 0 mm 1 mps 641 mmHg 66%
    03:00 -1°C° 0 mm 1 mps 640 mmHg 64%
    04:00 -1°C° 0 mm 1 mps 640 mmHg 63%
    05:00 -1°C° 0 mm 1 mps 640 mmHg 62%
    06:00 -3°C° 0 mm 2 mps 640 mmHg 56%
    07:00 0°C° 0 mm 1 mps 641 mmHg 56%
    08:00 +1°C° 0 mm 1 mps 641 mmHg 57%
    09:00 +3°C° 0 mm 1 mps 641 mmHg 57%
    10:00 +4°C° 0 mm 1 mps 642 mmHg 58%
    11:00 +5°C° 0 mm 1 mps 642 mmHg 58%
    12:00 +7°C° 0 mm 1 mps 642 mmHg 59%
    13:00 +7°C° 0 mm 1 mps 642 mmHg 61%
    14:00 +7°C° 0 mm 1 mps 641 mmHg 63%
    15:00 +7°C° 0 mm 1 mps 641 mmHg 65%
    16:00 +5°C° 0 mm 1 mps 640 mmHg 70%
    17:00 +3°C° 0 mm 1 mps 640 mmHg 75%
    18:00 +1°C° 0 mm 1 mps 639 mmHg 80%
    19:00 -1°C° 0 mm 2 mps 639 mmHg 79%
    20:00 -1°C° 0 mm 2 mps 639 mmHg 78%
    21:00 -1°C° 0 mm 2 mps 639 mmHg 78%
    22:00 -1°C° 0 mm 2 mps 639 mmHg 78%
    23:00 -1°C° 0 mm 2 mps 639 mmHg 79%

    Tomorrow, 19 January, Friday

    Time Temperature Precipitation Wind Pressure Humidity
    00:00 -1°C° 0 mm 2 mps 639 mmHg 80%
    01:00 -1°C° 0 mm 2 mps 638 mmHg 81%
    02:00 -1°C° 0 mm 2 mps 638 mmHg 82%
    03:00 -1°C° 0 mm 2 mps 638 mmHg 82%
    04:00 -1°C° 0 mm 2 mps 638 mmHg 83%
    05:00 -1°C° 0 mm 2 mps 637 mmHg 83%
    06:00 -1°C° 0 mm 2 mps 637 mmHg 83%
    07:00 +1°C° 0.1 mm 2 mps 638 mmHg 81%
    08:00 +2°C° 0.1 mm 2 mps 638 mmHg 79%
    09:00 +2°C° 0.1 mm 2 mps 639 mmHg 78%
    10:00 +3°C° 0 mm 2 mps 639 mmHg 74%
    11:00 +5°C° 0 mm 2 mps 640 mmHg 71%
    12:00 +6°C° 0 mm 2 mps 640 mmHg 67%
    13:00 +4°C° 0 mm 3 mps 640 mmHg 66%
    14:00 +4°C° 0 mm 3 mps 640 mmHg 66%
    15:00 +4°C° 0 mm 3 mps 639 mmHg 65%
    16:00 +2°C° 0 mm 3 mps 639 mmHg 70%
    17:00 0°C° 0 mm 3 mps 639 mmHg 75%
    18:00 -1°C° 0 mm 2 mps 639 mmHg 79%
    19:00 -2°C° 0 mm 3 mps 639 mmHg 78%
    20:00 -2°C° 0 mm 3 mps 639 mmHg 77%
    21:00 -2°C° 0 mm 3 mps 640 mmHg 76%
    22:00 -2°C° 0 mm 3 mps 640 mmHg 77%
    23:00 -2°C° 0 mm 2 mps 640 mmHg 78%

    Day after tomorrow, 20 January, Saturday

    Time Temperature Precipitation Wind Pressure Humidity
    00:00 -2°C° 0 mm 2 mps 640 mmHg 78%
    01:00 -2°C° 0 mm 2 mps 640 mmHg 79%
    02:00 -2°C° 0 mm 2 mps 640 mmHg 80%
    03:00 -2°C° 0 mm 2 mps 640 mmHg 80%
    04:00 -2°C° 0 mm 2 mps 639 mmHg 80%
    05:00 -3°C° 0 mm 2 mps 639 mmHg 80%
    06:00 -3°C° 0 mm 2 mps 639 mmHg 80%
    07:00 -2°C° 0 mm 2 mps 639 mmHg 76%
    08:00 +2°C° 0 mm 1 mps 639 mmHg 72%
    09:00 +3°C° 0 mm 1 mps 640 mmHg 69%
    10:00 +3°C° 0.1 mm 2 mps 640 mmHg 69%
    11:00 +4°C° 0.1 mm 2 mps 639 mmHg 70%
    12:00 +4°C° 0.1 mm 3 mps 639 mmHg 71%
    13:00 +4°C° 0.7 mm 3 mps 639 mmHg 74%
    14:00 +4°C° 0.7 mm 3 mps 638 mmHg 77%
    15:00 +4°C° 0.7 mm 3 mps 638 mmHg 79%
    16:00 +3°C° 0.7 mm 3 mps 638 mmHg 83%
    17:00 +3°C° 0.7 mm 4 mps 638 mmHg 86%
    18:00 +1°C° 0.7 mm 4 mps 638 mmHg 90%
    19:00 +1°C° 0.4 mm 4 mps 638 mmHg 90%
    20:00 +3°C° 0.4 mm 4 mps 639 mmHg 90%
    21:00 +3°C° 0.4 mm 4 mps 639 mmHg 91%
    22:00 +3°C° 0.4 mm 4 mps 639 mmHg 90%
    23:00 +3°C° 0.4 mm 3 mps 640 mmHg 90%

    21 January, Sunday

    Time Temperature Precipitation Wind Pressure Humidity
    00:00 +3°C° 0.4 mm 3 mps 640 mmHg 90%
    01:00 +3°C° 0.6 mm 3 mps 640 mmHg 90%
    02:00 +3°C° 0.6 mm 3 mps 641 mmHg 90%
    03:00 +3°C° 0.6 mm 3 mps 641 mmHg 90%
    04:00 +3°C° 0.4 mm 3 mps 641 mmHg 89%
    05:00 +3°C° 0.4 mm 3 mps 641 mmHg 89%
    06:00 +3°C° 0.4 mm 3 mps 641 mmHg 89%
    07:00 +3°C° 0.2 mm 3 mps 642 mmHg 87%
    08:00 +3°C° 0.2 mm 3 mps 642 mmHg 86%
    09:00 +4°C° 0.2 mm 3 mps 643 mmHg 85%
    10:00 +4°C° 0.2 mm 3 mps 643 mmHg 83%
    11:00 +5°C° 0.2 mm 3 mps 643 mmHg 80%
    12:00 +7°C° 0.2 mm 3 mps 644 mmHg 77%
    13:00 +7°C° 0 mm 3 mps 644 mmHg 77%
    14:00 +7°C° 0 mm 3 mps 644 mmHg 76%
    15:00 +7°C° 0 mm 3 mps 644 mmHg 75%
    16:00 +5°C° 0 mm 3 mps 644 mmHg 78%
    17:00 +4°C° 0 mm 3 mps 644 mmHg 81%
    18:00 +3°C° 0 mm 3 mps 644 mmHg 84%
    19:00 +2°C° 0 mm 3 mps 644 mmHg 83%
    20:00 +2°C° 0 mm 3 mps 644 mmHg 83%
    21:00 +2°C° 0 mm 3 mps 644 mmHg 82%
    22:00 +2°C° 0 mm 3 mps 644 mmHg 83%
    23:00 +2°C° 0 mm 3 mps 644 mmHg 83%

    22 January, Monday

    Time Temperature Precipitation Wind Pressure Humidity
    00:00 +2°C° 0 mm 3 mps 644 mmHg 83%
    01:00 +1°C° 0 mm 3 mps 644 mmHg 83%
    02:00 +1°C° 0 mm 3 mps 644 mmHg 84%
    03:00 +1°C° 0 mm 3 mps 644 mmHg 84%
    04:00 +1°C° 0 mm 3 mps 644 mmHg 83%
    05:00 +1°C° 0 mm 3 mps 644 mmHg 83%
    06:00 +1°C° 0 mm 3 mps 644 mmHg 82%
    07:00 +2°C° 0 mm 2 mps 644 mmHg 80%
    08:00 +3°C° 0 mm 2 mps 645 mmHg 77%
    09:00 +4°C° 0 mm 2 mps 645 mmHg 74%
    10:00 +6°C° 0 mm 2 mps 646 mmHg 70%
    11:00 +7°C° 0 mm 2 mps 646 mmHg 67%
    12:00 +9°C° 0 mm 2 mps 646 mmHg 63%
    13:00 +9°C° 0 mm 2 mps 646 mmHg 64%
    14:00 +9°C° 0 mm 2 mps 646 mmHg 65%
    15:00 +9°C° 0 mm 2 mps 645 mmHg 66%
    16:00 +7°C° 0 mm 2 mps 645 mmHg 71%
    17:00 +5°C° 0 mm 2 mps 644 mmHg 75%
    18:00 +3°C° 0 mm 2 mps 644 mmHg 80%
    19:00 +3°C° 0 mm 2 mps 644 mmHg 77%
    20:00 +3°C° 0 mm 2 mps 644 mmHg 74%
    21:00 +3°C° 0 mm 2 mps 645 mmHg 71%
    22:00 +3°C° 0 mm 2 mps 645 mmHg 68%
    23:00 +3°C° 0 mm 2 mps 645 mmHg 65%

    23 January, Tuesday

    Time Temperature Precipitation Wind Pressure Humidity
    00:00 +3°C° 0 mm 2 mps 645 mmHg 62%
    01:00 +2°C° 0 mm 2 mps 644 mmHg 62%
    02:00 +2°C° 0 mm 2 mps 644 mmHg 61%
    03:00 +2°C° 0 mm 2 mps 644 mmHg 60%
    04:00 +2°C° 0 mm 2 mps 644 mmHg 60%
    05:00 +2°C° 0 mm 2 mps 645 mmHg 60%
    06:00 +2°C° 0 mm 2 mps 645 mmHg 60%
    07:00 +3°C° 0 mm 2 mps 645 mmHg 58%
    08:00 +4°C° 0 mm 2 mps 646 mmHg 57%
    09:00 +5°C° 0 mm 2 mps 647 mmHg 56%
    10:00 +8°C° 0 mm 1 mps 647 mmHg 52%
    11:00 +9°C° 0 mm 1 mps 647 mmHg 49%
    12:00 +11°C° 0 mm 1 mps 648 mmHg 46%
    13:00 +11°C° 0 mm 1 mps 647 mmHg 48%
    14:00 +10°C° 0 mm 1 mps 647 mmHg 50%
    15:00 +10°C° 0 mm 1 mps 647 mmHg 53%
    16:00 +7°C° 0 mm 0 mps 646 mmHg 58%
    17:00 +5°C° 0 mm 0 mps 645 mmHg 64%
    18:00 +3°C° 0 mm 0 mps 645 mmHg 69%
    19:00 +4°C° 0 mm 1 mps 645 mmHg 68%
    20:00 +4°C° 0 mm 1 mps 645 mmHg 67%
    21:00 +4°C° 0 mm 1 mps 645 mmHg 66%
    22:00 +4°C° 0 mm 1 mps 644 mmHg 65%
    23:00 +4°C° 0 mm 1 mps 644 mmHg 64%
    Show more